軌道要素
Epoch 2024 Mar. 31.0 TT = JDT 2460400.5
T 2023 Dec. 22.79242 TT Rudenko
q 1.9954508 (2000.0) P Q
z +0.0043739 Peri. 111.19518 +0.14961856 -0.84919522
+/-0.0000010 Node 317.53219 +0.36308876 +0.52360833
e 0.9912721 Incl. 48.59787 +0.91966344 -0.06856958
>From 370 observations 2023 Aug. 14-2024 Apr. 5, mean residual 0".5.
|